This demonstration page uses our WeatherBlox Daily Observations layout. Learn more.

38.89511, -77.03637

Hourly Observations for December 20, 2016

Temp ( °F °C ) Dew Point ( °F °C ) Humidity (%) Winds ( mph kmh ) Pressure ( in mb ) Visibility ( mi km ) Precip ( " mm )
12:52 am 00:52 Mostly Cloudy 30 -1.1 17 -8.3 58 58 NE 8 13 30.67 1039 10 16.0934 0 0
1:52 am 01:52 Partly Cloudy 30 -1.1 16 -8.9 56 56 NE 8 13 30.66 1038 10 16.0934 0 0
2:52 am 02:52 Mostly Clear 29 -1.7 17 -8.3 61 61 NE 7 11 30.65 1038 10 16.0934 0 0
3:52 am 03:52 Mostly Clear 28 -2.2 16 -8.9 60 60 NNE 6 9 30.63 1037 10 16.0934 0 0
4:52 am 04:52 Mostly Clear 27 -2.8 16 -8.9 63 63 NNE 7 11 30.62 1037 10 16.0934 0 0
5:52 am 05:52 Mostly Clear 27 -2.8 17 -8.3 66 66 NNE 5 7 30.62 1037 10 16.0934 0 0
6:52 am 06:52 Mostly Clear 27 -2.8 17 -8.3 66 66 ENE 7 11 30.61 1037 10 16.0934 0 0
7:52 am 07:52 Mostly Sunny 27 -2.8 17 -8.3 66 66 ENE 6 9 30.6 1036 10 16.0934 0 0
8:52 am 08:52 Sunny 28 -2.2 17 -8.3 63 63 ENE 7 11 30.59 1036 10 16.0934 0 0
9:52 am 09:52 Mostly Sunny 31 -0.6 16 -8.9 54 54 ENE 5 7 30.6 1036 10 16.0934 0 0
10:52 am 10:52 Mostly Sunny 33 0.6 15 -9.4 47 47 Calm 30.58 1036 10 16.0934 0 0
11:52 am 11:52 Mostly Sunny 34 1.1 15 -9.4 46 46 Calm 30.52 1034 10 16.0934 0 0
12:52 pm 12:52 Mostly Sunny 35 1.7 16 -8.9 46 46 SSE 6 9 30.46 1032 10 16.0934 0 0
1:52 pm 13:52 Mostly Sunny 36 2.2 18 -7.8 48 48 S 6 9 30.43 1030 10 16.0934 0 0
2:52 pm 14:52 Mostly Sunny 37 2.8 19 -7.2 48 48 SSE 6 9 30.39 1029 10 16.0934 0 0
3:52 pm 15:52 Mostly Sunny 37 2.8 22 -5.6 54 54 SSE 3 6 30.37 1028 10 16.0934 0 0
4:52 pm 16:52 Mostly Clear 35 1.7 18 -7.8 50 50 S 5 7 30.35 1028 10 16.0934 0 0
5:52 pm 17:52 Clear 34 1.1 18 -7.8 52 52 WSW 5 7 30.33 1027 10 16.0934 0 0
6:52 pm 18:52 Clear 34 1.1 19 -7.2 54 54 SSW 6 9 30.33 1027 10 16.0934 0 0
7:52 pm 19:52 Clear 32 0 23 -5 69 69 S 5 7 30.3 1026 10 16.0934 0 0
8:52 pm 20:52 Mostly Cloudy 31 -0.6 21 -6.1 67 67 SSW 3 6 30.29 1026 10 16.0934 0 0
9:52 pm 21:52 Mostly Cloudy 32 0 20 -6.7 61 61 S 5 7 30.27 1025 10 16.0934 0 0
10:52 pm 22:52 Cloudy 30 -1.1 23 -5 75 75 S 6 9 30.26 1025 10 16.0934 0 0
11:52 pm 23:52 Mostly Cloudy 30 -1.1 22 -5.6 72 72 SSW 5 7 30.23 1024 10 16.0934 0 0

Powered by AerisWeather